This is the latest recevied weather packets stored in our database for station/object R1ZAAG-14. If no packets are shown the sender has not sent any weather packets the latest 10 day(s).
| Time | Temp. | Humidity | Pressure | Rain* | Wind** | Luminosity | Snow |
|---|---|---|---|---|---|---|---|
| 1778037081 | 1.67° C | 79% | 1002 hPa | - | - | - | - |
| 1778036181 | 1.67° C | 80% | 1001.9 hPa | - | - | - | - |
| 1778035281 | 1.11° C | 80% | 1001.8 hPa | - | - | - | - |
| 1778034380 | 1.11° C | 80% | 1001.5 hPa | - | - | - | - |
| 1778033480 | 1.11° C | 78% | 1001.5 hPa | - | - | - | - |
| 1778032579 | 1.11° C | 81% | 1001.4 hPa | - | - | - | - |
| 1778031679 | 1.11° C | 78% | 1001.4 hPa | - | - | - | - |
| 1778030778 | 1.11° C | 76% | 1001.2 hPa | - | - | - | - |
| 1778029878 | 1.11° C | 76% | 1001.2 hPa | - | - | - | - |
| 1778028977 | 1.11° C | 76% | 1001 hPa | - | - | - | - |
| 1778028076 | 1.67° C | 74% | 1001 hPa | - | - | - | - |
| 1778027176 | 1.67° C | 74% | 1000.9 hPa | - | - | - | - |
| 1778026275 | 1.67° C | 73% | 1000.8 hPa | - | - | - | - |
| 1778025374 | 1.67° C | 72% | 1000.8 hPa | - | - | - | - |
| 1778024473 | 1.67° C | 73% | 1000.6 hPa | - | - | - | - |
| 1778023573 | 1.11° C | 74% | 1000.7 hPa | - | - | - | - |
| 1778022671 | 1.11° C | 78% | 1000.6 hPa | - | - | - | - |
| 1778021779 | 1.11° C | 82% | 1000.6 hPa | - | - | - | - |
| 1778021770 | 1.11° C | 82% | 1000.6 hPa | - | - | - | - |
| 1778020883 | 1.11° C | 87% | 1000.6 hPa | - | - | - | - |
| 1778020870 | 1.11° C | 87% | 1000.6 hPa | - | - | - | - |
| 1778019987 | 1.67° C | 96% | 1000.4 hPa | - | - | - | - |
| 1778019087 | 1.67° C | 98% | 1000.3 hPa | - | - | - | - |
| 1778018182 | 1.67° C | 98% | 1000.3 hPa | - | - | - | - |
| 1778017281 | 1.67° C | 98% | 1000.2 hPa | - | - | - | - |
* Rain since midnight (hover to see other rain measurements)
** Current wind speed in m/s (hover to see current wind gust speed)